Time,TemperatureF,DewpointF,PressureIn,WindDirection,WindDirectionDegrees,WindSpeedMPH,WindSpeedGustMPH,Humidity,HourlyPrecipIn,Conditions,Clouds,dailyrainin,SoftwareType,DateUTC
2013-05-11 00:04:00,73.2,24.3,30.03,North,-999,0.0,2.7,16,0.00,,,-99.99,FreeWX-Wi 1.02,2013-05-11 07:04:00,
2013-05-11 00:09:00,73.2,24.3,30.03,North,-999,0.0,4.0,16,0.00,,,-99.99,FreeWX-Wi 1.02,2013-05-11 07:09:00,
2013-05-11 00:14:00,73.0,24.3,30.03,North,-999,0.0,3.1,16,0.00,,,-99.99,FreeWX-Wi 1.02,2013-05-11 07:14:00,
2013-05-11 00:19:00,73.2,24.3,30.03,North,-999,0.0,3.1,16,0.00,,,-99.99,FreeWX-Wi 1.02,2013-05-11 07:19:00,
2013-05-11 00:24:00,73.2,24.3,30.03,North,-999,0.0,2.2,16,0.00,,,-99.99,FreeWX-Wi 1.02,2013-05-11 07:24:00,
2013-05-11 00:29:00,73.0,24.3,30.03,North,-999,0.0,2.2,16,0.00,,,-99.99,FreeWX-Wi 1.02,2013-05-11 07:29:00,
2013-05-11 00:34:00,72.1,23.5,30.03,North,-999,0.0,0.0,16,0.00,,,-99.99,FreeWX-Wi 1.02,2013-05-11 07:34:00,
2013-05-11 00:39:00,71.4,24.3,30.03,North,-999,0.0,0.0,17,0.00,,,-99.99,FreeWX-Wi 1.02,2013-05-11 07:39:00,
2013-05-11 00:44:00,71.1,24.1,30.03,North,-999,0.0,0.0,17,0.00,,,-99.99,FreeWX-Wi 1.02,2013-05-11 07:44:00,
2013-05-11 00:49:00,70.5,23.5,30.03,North,-999,0.0,0.0,17,0.00,,,-99.99,FreeWX-Wi 1.02,2013-05-11 07:49:00,
2013-05-11 00:54:00,70.0,23.2,30.03,North,-999,0.0,0.0,17,0.00,,,-99.99,FreeWX-Wi 1.02,2013-05-11 07:54:00,
2013-05-11 00:59:00,69.4,22.8,30.03,North,-999,0.0,0.0,17,0.00,,,-99.99,FreeWX-Wi 1.02,2013-05-11 07:59:00,
2013-05-11 01:04:00,69.1,22.5,30.03,North,-999,0.0,0.0,17,0.00,,,-99.99,FreeWX-Wi 1.02,2013-05-11 08:04:00,
2013-05-11 01:09:00,68.7,22.1,30.03,North,-999,0.0,0.0,17,0.00,,,-99.99,FreeWX-Wi 1.02,2013-05-11 08:09:00,
2013-05-11 01:14:00,68.5,21.9,30.03,North,-999,0.0,0.0,17,0.00,,,-99.99,FreeWX-Wi 1.02,2013-05-11 08:14:00,
2013-05-11 01:19:00,68.7,22.1,30.03,North,-999,0.0,0.0,17,0.00,,,-99.99,FreeWX-Wi 1.02,2013-05-11 08:19:00,
2013-05-11 01:24:00,68.5,21.9,30.03,North,-999,0.0,0.0,17,0.00,,,-99.99,FreeWX-Wi 1.02,2013-05-11 08:24:00,
2013-05-11 01:29:00,68.2,21.7,30.03,North,-999,0.0,2.2,17,0.00,,,-99.99,FreeWX-Wi 1.02,2013-05-11 08:29:00,
2013-05-11 01:34:00,68.0,21.6,30.03,North,-999,0.0,0.0,17,0.00,,,-99.99,FreeWX-Wi 1.02,2013-05-11 08:34:00,
2013-05-11 01:39:00,67.8,21.4,30.03,North,-999,0.0,0.0,17,0.00,,,-99.99,FreeWX-Wi 1.02,2013-05-11 08:39:00,
2013-05-11 01:44:00,67.6,21.2,30.03,North,-999,0.0,2.2,17,0.00,,,-99.99,FreeWX-Wi 1.02,2013-05-11 08:44:00,
2013-05-11 01:49:00,67.6,21.2,30.03,North,-999,0.0,2.7,17,0.00,,,-99.99,FreeWX-Wi 1.02,2013-05-11 08:49:00,
2013-05-11 01:54:00,67.5,21.2,30.03,North,-999,0.0,0.0,17,0.00,,,-99.99,FreeWX-Wi 1.02,2013-05-11 08:54:00,
2013-05-11 01:59:00,67.6,21.2,30.03,North,-999,0.0,0.0,17,0.00,,,-99.99,FreeWX-Wi 1.02,2013-05-11 08:59:00,
2013-05-11 02:04:00,67.5,21.2,30.03,North,-999,0.0,0.0,17,0.00,,,-99.99,FreeWX-Wi 1.02,2013-05-11 09:04:00,
2013-05-11 02:09:00,67.6,21.2,30.03,North,-999,0.0,0.0,17,0.00,,,-99.99,FreeWX-Wi 1.02,2013-05-11 09:09:00,
2013-05-11 02:14:00,67.6,21.2,30.03,North,-999,0.0,0.0,17,0.00,,,-99.99,FreeWX-Wi 1.02,2013-05-11 09:14:00,
2013-05-11 02:19:00,67.3,21.0,30.03,North,-999,0.0,0.0,17,0.00,,,-99.99,FreeWX-Wi 1.02,2013-05-11 09:19:00,
2013-05-11 02:24:00,67.3,21.0,30.03,North,-999,0.0,2.7,17,0.00,,,-99.99,FreeWX-Wi 1.02,2013-05-11 09:24:00,
2013-05-11 02:29:00,67.1,20.8,30.03,North,-999,0.0,0.0,17,0.00,,,-99.99,FreeWX-Wi 1.02,2013-05-11 09:29:00,
2013-05-11 02:34:00,67.1,20.8,30.03,North,-999,0.0,3.6,17,0.00,,,-99.99,FreeWX-Wi 1.02,2013-05-11 09:34:00,
2013-05-11 02:39:00,66.9,20.7,30.03,North,-999,0.0,2.7,17,0.00,,,-99.99,FreeWX-Wi 1.02,2013-05-11 09:39:00,
2013-05-11 02:44:00,67.1,20.8,30.03,North,-999,0.0,0.0,17,0.00,,,-99.99,FreeWX-Wi 1.02,2013-05-11 09:44:00,
2013-05-11 02:49:00,66.9,20.7,30.03,North,-999,0.0,0.0,17,0.00,,,-99.99,FreeWX-Wi 1.02,2013-05-11 09:49:00,
2013-05-11 02:54:00,66.9,20.7,30.03,North,-999,0.0,0.0,17,0.00,,,-99.99,FreeWX-Wi 1.02,2013-05-11 09:54:00,
2013-05-11 02:59:00,66.7,20.5,30.03,North,-999,0.0,0.0,17,0.00,,,-99.99,FreeWX-Wi 1.02,2013-05-11 09:59:00,
2013-05-11 03:04:00,66.6,20.5,30.03,North,-999,0.0,0.0,17,0.00,,,-99.99,FreeWX-Wi 1.02,2013-05-11 10:04:00,
2013-05-11 03:09:00,66.6,20.5,30.03,North,-999,0.0,0.0,17,0.00,,,-99.99,FreeWX-Wi 1.02,2013-05-11 10:09:00,
2013-05-11 03:14:00,66.6,20.5,30.03,North,-999,0.0,3.6,17,0.00,,,-99.99,FreeWX-Wi 1.02,2013-05-11 10:14:00,
2013-05-11 03:19:00,66.7,20.5,30.03,North,-999,0.0,3.6,17,0.00,,,-99.99,FreeWX-Wi 1.02,2013-05-11 10:19:00,
2013-05-11 03:24:00,67.1,20.8,30.03,North,-999,0.0,4.5,17,0.00,,,-99.99,FreeWX-Wi 1.02,2013-05-11 10:24:00,
2013-05-11 03:29:00,67.1,20.8,30.03,North,357,1.0,4.0,17,0.00,,,-99.99,FreeWX-Wi 1.02,2013-05-11 10:29:00,
2013-05-11 03:34:00,67.1,20.8,30.03,North,357,1.0,3.1,17,0.00,,,-99.99,FreeWX-Wi 1.02,2013-05-11 10:34:00,
2013-05-11 03:39:00,66.7,20.5,30.03,North,357,1.0,0.0,17,0.00,,,-99.99,FreeWX-Wi 1.02,2013-05-11 10:39:00,
2013-05-11 03:44:00,66.2,20.1,30.03,North,357,1.0,0.0,17,0.00,,,-99.99,FreeWX-Wi 1.02,2013-05-11 10:44:00,
2013-05-11 03:49:00,65.8,21.2,30.03,North,-999,0.0,3.1,18,0.00,,,-99.99,FreeWX-Wi 1.02,2013-05-11 10:49:00,
2013-05-11 03:54:00,65.7,21.0,30.03,North,-999,0.0,3.1,18,0.00,,,-99.99,FreeWX-Wi 1.02,2013-05-11 10:54:00,
2013-05-11 03:59:00,65.5,20.8,30.03,North,-999,0.0,0.0,18,0.00,,,-99.99,FreeWX-Wi 1.02,2013-05-11 10:59:00,
2013-05-11 04:04:00,65.5,20.8,30.03,North,-999,0.0,3.1,18,0.00,,,-99.99,FreeWX-Wi 1.02,2013-05-11 11:04:00,
2013-05-11 04:09:00,65.7,21.0,30.03,North,-999,0.0,2.7,18,0.00,,,-99.99,FreeWX-Wi 1.02,2013-05-11 11:09:00,
2013-05-11 04:14:00,65.7,21.0,30.03,North,-999,0.0,3.6,18,0.00,,,-99.99,FreeWX-Wi 1.02,2013-05-11 11:14:00,
2013-05-11 04:19:00,65.7,21.0,30.00,North,-999,0.0,3.6,18,0.00,,,-99.99,FreeWX-Wi 1.02,2013-05-11 11:19:00,
2013-05-11 04:24:00,65.7,21.0,30.00,North,-999,0.0,2.7,18,0.00,,,-99.99,FreeWX-Wi 1.02,2013-05-11 11:24:00,
2013-05-11 04:29:00,65.7,21.0,30.00,North,0,1.0,2.2,18,0.00,,,-99.99,FreeWX-Wi 1.02,2013-05-11 11:29:00,
2013-05-11 04:34:00,65.7,21.0,30.00,North,0,1.0,2.7,18,0.00,,,-99.99,FreeWX-Wi 1.02,2013-05-11 11:34:00,
2013-05-11 04:39:00,65.7,21.0,30.00,North,0,1.0,2.2,18,0.00,,,-99.99,FreeWX-Wi 1.02,2013-05-11 11:39:00,
2013-05-11 04:44:00,66.0,21.4,30.00,North,0,1.0,3.1,18,0.00,,,-99.99,FreeWX-Wi 1.02,2013-05-11 11:44:00,
2013-05-11 04:49:00,66.4,20.3,30.00,North,-999,0.0,0.0,17,0.00,,,-99.99,FreeWX-Wi 1.02,2013-05-11 11:49:00,
2013-05-11 04:54:00,66.0,21.4,30.00,North,-999,0.0,0.0,18,0.00,,,-99.99,FreeWX-Wi 1.02,2013-05-11 11:54:00,
2013-05-11 04:59:00,66.7,20.5,30.00,North,-999,0.0,3.1,17,0.00,,,-99.99,FreeWX-Wi 1.02,2013-05-11 11:59:00,
2013-05-11 05:04:00,67.5,21.2,30.00,North,-999,0.0,3.1,17,0.00,,,-99.99,FreeWX-Wi 1.02,2013-05-11 12:04:00,
2013-05-11 05:09:00,67.5,21.2,30.00,North,-999,0.0,3.1,17,0.00,,,-99.99,FreeWX-Wi 1.02,2013-05-11 12:09:00,
2013-05-11 05:14:00,67.3,21.0,30.00,North,-999,0.0,4.0,17,0.00,,,-99.99,FreeWX-Wi 1.02,2013-05-11 12:14:00,
2013-05-11 05:19:00,67.1,20.8,30.00,North,-999,0.0,2.7,17,0.00,,,-99.99,FreeWX-Wi 1.02,2013-05-11 12:19:00,
2013-05-11 05:24:00,66.7,20.5,30.00,North,353,1.0,5.4,17,0.00,,,-99.99,FreeWX-Wi 1.02,2013-05-11 12:24:00,
2013-05-11 05:29:00,66.6,20.5,30.00,NNW,343,1.0,3.6,17,0.00,,,-99.99,FreeWX-Wi 1.02,2013-05-11 12:29:00,
2013-05-11 05:34:00,66.9,20.7,30.00,NNW,332,1.0,4.0,17,0.00,,,-99.99,FreeWX-Wi 1.02,2013-05-11 12:34:00,
2013-05-11 05:39:00,66.6,20.5,30.00,NW,321,1.0,2.2,17,0.00,,,-99.99,FreeWX-Wi 1.02,2013-05-11 12:39:00,
2013-05-11 05:44:00,66.2,20.1,30.00,NW,310,1.0,2.7,17,0.00,,,-99.99,FreeWX-Wi 1.02,2013-05-11 12:44:00,
2013-05-11 05:49:00,65.5,20.8,30.00,WNW,300,1.0,3.1,18,0.00,,,-99.99,FreeWX-Wi 1.02,2013-05-11 12:49:00,
2013-05-11 05:54:00,65.1,20.5,30.00,North,-999,0.0,3.1,18,0.00,,,-99.99,FreeWX-Wi 1.02,2013-05-11 12:54:00,
2013-05-11 05:59:00,65.1,20.5,30.00,North,-999,0.0,3.1,18,0.00,,,-99.99,FreeWX-Wi 1.02,2013-05-11 12:59:00,
2013-05-11 06:04:00,64.9,20.5,30.03,North,-999,0.0,3.1,18,0.00,,,-99.99,FreeWX-Wi 1.02,2013-05-11 13:04:00,
2013-05-11 06:09:00,64.8,20.3,30.03,North,-999,0.0,2.7,18,0.00,,,-99.99,FreeWX-Wi 1.02,2013-05-11 13:09:00,
2013-05-11 06:14:00,64.6,20.1,30.03,North,-999,0.0,2.7,18,0.00,,,-99.99,FreeWX-Wi 1.02,2013-05-11 13:14:00,
2013-05-11 06:19:00,65.5,20.8,30.03,North,-999,0.0,2.7,18,0.00,,,-99.99,FreeWX-Wi 1.02,2013-05-11 13:19:00,
2013-05-11 06:24:00,65.3,20.7,30.03,North,-999,0.0,0.0,18,0.00,,,-99.99,FreeWX-Wi 1.02,2013-05-11 13:24:00,
2013-05-11 06:29:00,65.5,20.8,30.03,North,-999,0.0,3.1,18,0.00,,,-99.99,FreeWX-Wi 1.02,2013-05-11 13:29:00,
2013-05-11 06:34:00,66.0,21.4,30.03,North,-999,0.0,2.7,18,0.00,,,-99.99,FreeWX-Wi 1.02,2013-05-11 13:34:00,
2013-05-11 06:39:00,66.6,20.5,30.03,North,-999,0.0,4.5,17,0.00,,,-99.99,FreeWX-Wi 1.02,2013-05-11 13:39:00,
2013-05-11 06:44:00,67.3,21.0,30.03,North,-999,0.0,2.7,17,0.00,,,-99.99,FreeWX-Wi 1.02,2013-05-11 13:44:00,
2013-05-11 06:49:00,68.2,21.7,30.03,North,-999,0.0,3.1,17,0.00,,,-99.99,FreeWX-Wi 1.02,2013-05-11 13:49:00,
2013-05-11 06:54:00,69.1,22.5,30.03,North,-999,0.0,4.0,17,0.00,,,-99.99,FreeWX-Wi 1.02,2013-05-11 13:54:00,
2013-05-11 06:59:00,69.8,23.0,30.03,North,-999,0.0,3.1,17,0.00,,,-99.99,FreeWX-Wi 1.02,2013-05-11 13:59:00,
2013-05-11 07:04:00,70.3,23.5,30.03,North,-999,0.0,3.1,17,0.00,,,-99.99,FreeWX-Wi 1.02,2013-05-11 14:04:00,
2013-05-11 07:09:00,71.4,24.3,30.03,North,-999,0.0,3.1,17,0.00,,,-99.99,FreeWX-Wi 1.02,2013-05-11 14:09:00,
2013-05-11 07:14:00,72.1,23.5,30.03,North,-999,0.0,2.7,16,0.00,,,-99.99,FreeWX-Wi 1.02,2013-05-11 14:14:00,
2013-05-11 07:19:00,73.2,24.3,30.06,North,-999,0.0,0.0,16,0.00,,,-99.99,FreeWX-Wi 1.02,2013-05-11 14:19:00,
2013-05-11 07:24:00,73.8,24.8,30.06,North,-999,0.0,0.0,16,0.00,,,-99.99,FreeWX-Wi 1.02,2013-05-11 14:24:00,
2013-05-11 07:29:00,74.7,25.5,30.06,North,-999,0.0,2.7,16,0.00,,,-99.99,FreeWX-Wi 1.02,2013-05-11 14:29:00,
2013-05-11 07:34:00,75.9,25.0,30.06,North,-999,0.0,3.6,15,0.00,,,-99.99,FreeWX-Wi 1.02,2013-05-11 14:34:00,
2013-05-11 07:39:00,76.8,25.7,30.06,North,-999,0.0,0.0,15,0.00,,,-99.99,FreeWX-Wi 1.02,2013-05-11 14:39:00,
2013-05-11 07:44:00,77.9,26.6,30.06,North,-999,0.0,0.0,15,0.00,,,-99.99,FreeWX-Wi 1.02,2013-05-11 14:44:00,
2013-05-11 07:49:00,78.3,26.8,30.06,North,-999,0.0,0.0,15,0.00,,,-99.99,FreeWX-Wi 1.02,2013-05-11 14:49:00,
2013-05-11 07:54:00,79.2,27.5,30.06,North,-999,0.0,0.0,15,0.00,,,-99.99,FreeWX-Wi 1.02,2013-05-11 14:54:00,
2013-05-11 07:59:00,79.7,28.0,30.06,North,-999,0.0,0.0,15,0.00,,,-99.99,FreeWX-Wi 1.02,2013-05-11 14:59:00,
2013-05-11 08:04:00,80.6,27.0,30.06,North,-999,0.0,0.0,14,0.00,,,-99.99,FreeWX-Wi 1.02,2013-05-11 15:04:00,
2013-05-11 08:09:00,81.3,27.5,30.06,North,-999,0.0,0.0,14,0.00,,,-99.99,FreeWX-Wi 1.02,2013-05-11 15:09:00,
2013-05-11 08:14:00,82.4,28.4,30.06,North,-999,0.0,0.0,14,0.00,,,-99.99,FreeWX-Wi 1.02,2013-05-11 15:14:00,
2013-05-11 08:19:00,83.1,28.9,30.06,North,-999,0.0,0.0,14,0.00,,,-99.99,FreeWX-Wi 1.02,2013-05-11 15:19:00,
2013-05-11 08:24:00,84.2,28.0,30.06,North,-999,0.0,0.0,13,0.00,,,-99.99,FreeWX-Wi 1.02,2013-05-11 15:24:00,
2013-05-11 08:29:00,85.5,28.9,30.06,North,-999,0.0,0.0,13,0.00,,,-99.99,FreeWX-Wi 1.02,2013-05-11 15:29:00,
2013-05-11 08:34:00,86.4,29.7,30.09,North,-999,0.0,0.0,13,0.00,,,-99.99,FreeWX-Wi 1.02,2013-05-11 15:34:00,
2013-05-11 08:39:00,87.1,30.2,30.09,North,-999,0.0,0.0,13,0.00,,,-99.99,FreeWX-Wi 1.02,2013-05-11 15:39:00,
2013-05-11 08:44:00,87.6,30.7,30.09,North,-999,0.0,2.7,13,0.00,,,-99.99,FreeWX-Wi 1.02,2013-05-11 15:44:00,
2013-05-11 08:49:00,88.2,31.1,30.06,North,-999,0.0,5.4,13,0.00,,,-99.99,FreeWX-Wi 1.02,2013-05-11 15:49:00,
2013-05-11 08:54:00,88.7,31.5,30.06,West,281,1.0,5.8,13,0.00,,,-99.99,FreeWX-Wi 1.02,2013-05-11 15:54:00,
2013-05-11 08:59:00,89.4,32.0,30.06,West,274,2.0,5.8,13,0.00,,,-99.99,FreeWX-Wi 1.02,2013-05-11 15:59:00,
2013-05-11 09:04:00,90.0,30.6,30.06,West,265,2.0,5.4,12,0.00,,,-99.99,FreeWX-Wi 1.02,2013-05-11 16:04:00,
2013-05-11 09:09:00,90.1,30.7,30.06,WSW,255,3.0,6.3,12,0.00,,,-99.99,FreeWX-Wi 1.02,2013-05-11 16:09:00,
2013-05-11 09:14:00,90.9,31.3,30.06,WSW,246,4.0,5.8,12,0.00,,,-99.99,FreeWX-Wi 1.02,2013-05-11 16:14:00,
2013-05-11 09:19:00,91.8,31.8,30.06,WSW,242,4.0,7.6,12,0.00,,,-99.99,FreeWX-Wi 1.02,2013-05-11 16:19:00,
2013-05-11 09:24:00,92.3,32.4,30.06,WSW,240,4.0,6.3,12,0.00,,,-99.99,FreeWX-Wi 1.02,2013-05-11 16:24:00,
2013-05-11 09:29:00,92.7,32.5,30.06,WSW,238,4.0,5.8,12,0.00,,,-99.99,FreeWX-Wi 1.02,2013-05-11 16:29:00,
2013-05-11 09:34:00,93.6,31.1,30.06,WSW,237,4.0,6.3,11,0.00,,,-99.99,FreeWX-Wi 1.02,2013-05-11 16:34:00,
2013-05-11 09:39:00,93.6,31.1,30.06,SW,236,4.0,6.3,11,0.00,,,-99.99,FreeWX-Wi 1.02,2013-05-11 16:39:00,
2013-05-11 09:44:00,93.6,31.1,30.06,WSW,238,3.0,5.8,11,0.00,,,-99.99,FreeWX-Wi 1.02,2013-05-11 16:44:00,
2013-05-11 09:49:00,94.1,31.5,30.06,WSW,240,3.0,4.5,11,0.00,,,-99.99,FreeWX-Wi 1.02,2013-05-11 16:49:00,
2013-05-11 09:54:00,94.8,38.1,30.06,WSW,239,3.0,7.6,14,0.00,,,-99.99,FreeWX-Wi 1.02,2013-05-11 16:54:00,
2013-05-11 09:59:00,94.5,37.9,30.06,WSW,240,3.0,5.8,14,0.00,,,-99.99,FreeWX-Wi 1.02,2013-05-11 16:59:00,
2013-05-11 10:04:00,95.2,38.5,30.06,WSW,237,3.0,5.8,14,0.00,,,-99.99,FreeWX-Wi 1.02,2013-05-11 17:04:00,
2013-05-11 10:09:00,95.4,38.7,30.06,SW,232,3.0,4.9,14,0.00,,,-99.99,FreeWX-Wi 1.02,2013-05-11 17:09:00,
2013-05-11 10:14:00,95.7,38.8,30.06,SW,223,2.0,5.8,14,0.00,,,-99.99,FreeWX-Wi 1.02,2013-05-11 17:14:00,
2013-05-11 10:19:00,96.4,39.4,30.06,SW,217,2.0,5.4,14,0.00,,,-99.99,FreeWX-Wi 1.02,2013-05-11 17:19:00,
2013-05-11 10:24:00,96.6,39.6,30.06,SSW,209,3.0,8.3,14,0.00,,,-99.99,FreeWX-Wi 1.02,2013-05-11 17:24:00,
2013-05-11 10:29:00,96.8,37.8,30.06,SSW,202,3.0,7.2,13,0.00,,,-99.99,FreeWX-Wi 1.02,2013-05-11 17:29:00,
2013-05-11 10:34:00,97.7,38.5,30.06,SSW,197,3.0,8.3,13,0.00,,,-99.99,FreeWX-Wi 1.02,2013-05-11 17:34:00,
2013-05-11 10:39:00,98.6,39.2,30.06,SSW,201,4.0,8.3,13,0.00,,,-99.99,FreeWX-Wi 1.02,2013-05-11 17:39:00,
2013-05-11 10:44:00,98.8,39.4,30.06,SSW,203,4.0,8.7,13,0.00,,,-99.99,FreeWX-Wi 1.02,2013-05-11 17:44:00,
2013-05-11 10:49:00,99.0,39.6,30.06,SSW,200,4.0,6.3,13,0.00,,,-99.99,FreeWX-Wi 1.02,2013-05-11 17:49:00,
2013-05-11 10:54:00,98.4,39.0,30.06,SSW,201,4.0,6.7,13,0.00,,,-99.99,FreeWX-Wi 1.02,2013-05-11 17:54:00,
2013-05-11 10:59:00,99.3,39.7,30.06,SSW,210,4.0,7.6,13,0.00,,,-99.99,FreeWX-Wi 1.02,2013-05-11 17:59:00,
2013-05-11 11:04:00,99.0,39.6,30.06,SSW,205,4.0,6.7,13,0.00,,,-99.99,FreeWX-Wi 1.02,2013-05-11 18:04:00,
2013-05-11 11:09:00,99.1,39.6,30.06,SSW,204,4.0,8.7,13,0.00,,,-99.99,FreeWX-Wi 1.02,2013-05-11 18:09:00,
2013-05-11 11:14:00,98.6,39.2,30.06,SSW,203,4.0,8.1,13,0.00,,,-99.99,FreeWX-Wi 1.02,2013-05-11 18:14:00,
2013-05-11 11:19:00,99.5,39.9,30.06,SSW,204,4.0,8.7,13,0.00,,,-99.99,FreeWX-Wi 1.02,2013-05-11 18:19:00,
2013-05-11 11:24:00,99.9,40.1,30.06,SSW,201,4.0,10.1,13,0.00,,,-99.99,FreeWX-Wi 1.02,2013-05-11 18:24:00,
2013-05-11 11:29:00,99.9,40.1,30.06,SSW,194,5.0,8.3,13,0.00,,,-99.99,FreeWX-Wi 1.02,2013-05-11 18:29:00,
2013-05-11 11:34:00,100.2,40.5,30.06,South,187,4.0,4.9,13,0.00,,,-99.99,FreeWX-Wi 1.02,2013-05-11 18:34:00,
2013-05-11 11:39:00,100.0,40.3,30.06,South,184,4.0,4.9,13,0.00,,,-99.99,FreeWX-Wi 1.02,2013-05-11 18:39:00,
2013-05-11 11:44:00,100.8,38.8,30.06,South,188,4.0,5.4,12,0.00,,,-99.99,FreeWX-Wi 1.02,2013-05-11 18:44:00,
2013-05-11 11:49:00,100.0,40.3,30.06,SSW,194,3.0,6.3,13,0.00,,,-99.99,FreeWX-Wi 1.02,2013-05-11 18:49:00,
2013-05-11 11:54:00,99.5,39.9,30.06,SSW,201,3.0,6.3,13,0.00,,,-99.99,FreeWX-Wi 1.02,2013-05-11 18:54:00,
2013-05-11 11:59:00,100.8,38.8,30.06,SW,214,3.0,9.2,12,0.00,,,-99.99,FreeWX-Wi 1.02,2013-05-11 18:59:00,
2013-05-11 12:04:00,100.4,38.5,30.06,SW,231,4.0,13.2,12,0.00,,,-99.99,FreeWX-Wi 1.02,2013-05-11 19:04:00,
2013-05-11 12:09:00,101.1,39.0,30.06,West,263,4.0,11.0,12,0.00,,,-99.99,FreeWX-Wi 1.02,2013-05-11 19:09:00,
2013-05-11 12:14:00,100.6,38.7,30.06,North,349,4.0,8.3,12,0.00,,,-99.99,FreeWX-Wi 1.02,2013-05-11 19:14:00,
2013-05-11 12:19:00,101.1,39.0,30.06,NNE,30,4.0,8.7,12,0.00,,,-99.99,FreeWX-Wi 1.02,2013-05-11 19:19:00,
2013-05-11 12:24:00,100.9,39.0,30.06,NE,48,5.0,6.3,12,0.00,,,-99.99,FreeWX-Wi 1.02,2013-05-11 19:24:00,
2013-05-11 12:29:00,101.8,39.6,30.06,ENE,65,4.0,10.5,12,0.00,,,-99.99,FreeWX-Wi 1.02,2013-05-11 19:29:00,
2013-05-11 12:34:00,102.9,40.5,30.06,East,97,4.0,10.5,12,0.00,,,-99.99,FreeWX-Wi 1.02,2013-05-11 19:34:00,
2013-05-11 12:39:00,102.4,40.1,30.06,SE,126,3.0,5.8,12,0.00,,,-99.99,FreeWX-Wi 1.02,2013-05-11 19:39:00,
2013-05-11 12:44:00,102.2,39.9,30.06,SE,144,3.0,5.8,12,0.00,,,-99.99,FreeWX-Wi 1.02,2013-05-11 19:44:00,
2013-05-11 12:49:00,102.0,39.7,30.06,SE,142,3.0,8.7,12,0.00,,,-99.99,FreeWX-Wi 1.02,2013-05-11 19:49:00,
2013-05-11 12:54:00,101.8,39.6,30.06,ESE,120,3.0,10.5,12,0.00,,,-99.99,FreeWX-Wi 1.02,2013-05-11 19:54:00,
2013-05-11 12:59:00,103.1,40.6,30.06,East,96,4.0,9.6,12,0.00,,,-99.99,FreeWX-Wi 1.02,2013-05-11 19:59:00,
2013-05-11 13:04:00,103.5,40.8,30.06,ENE,77,4.0,9.6,12,0.00,,,-99.99,FreeWX-Wi 1.02,2013-05-11 20:04:00,
2013-05-11 13:09:00,103.3,40.8,30.06,ENE,59,5.0,6.3,12,0.00,,,-99.99,FreeWX-Wi 1.02,2013-05-11 20:09:00,
2013-05-11 13:14:00,103.5,40.8,30.06,NE,54,5.0,8.1,12,0.00,,,-99.99,FreeWX-Wi 1.02,2013-05-11 20:14:00,
2013-05-11 13:19:00,103.3,40.8,30.06,NE,52,5.0,9.6,12,0.00,,,-99.99,FreeWX-Wi 1.02,2013-05-11 20:19:00,
2013-05-11 13:24:00,104.4,41.5,30.06,NE,56,5.0,8.7,12,0.00,,,-99.99,FreeWX-Wi 1.02,2013-05-11 20:24:00,
2013-05-11 13:29:00,105.3,42.3,30.06,ENE,60,5.0,11.4,12,0.00,,,-99.99,FreeWX-Wi 1.02,2013-05-11 20:29:00,
2013-05-11 13:34:00,105.1,42.1,30.03,ENE,61,5.0,8.1,12,0.00,,,-99.99,FreeWX-Wi 1.02,2013-05-11 20:34:00,
2013-05-11 13:39:00,105.1,42.1,30.03,ENE,71,5.0,6.3,12,0.00,,,-99.99,FreeWX-Wi 1.02,2013-05-11 20:39:00,
2013-05-11 13:44:00,105.1,42.1,30.03,East,84,5.0,8.7,12,0.00,,,-99.99,FreeWX-Wi 1.02,2013-05-11 20:44:00,
2013-05-11 13:49:00,105.4,42.4,30.06,East,96,5.0,10.1,12,0.00,,,-99.99,FreeWX-Wi 1.02,2013-05-11 20:49:00,
2013-05-11 13:54:00,105.8,40.5,30.06,East,100,5.0,8.3,11,0.00,,,-99.99,FreeWX-Wi 1.02,2013-05-11 20:54:00,
2013-05-11 13:59:00,105.8,40.5,30.06,East,96,4.0,8.1,11,0.00,,,-99.99,FreeWX-Wi 1.02,2013-05-11 20:59:00,
2013-05-11 14:04:00,105.6,42.6,30.06,East,99,4.0,7.6,12,0.00,,,-99.99,FreeWX-Wi 1.02,2013-05-11 21:04:00,
2013-05-11 14:09:00,104.4,41.5,30.06,East,85,4.0,4.0,12,0.00,,,-99.99,FreeWX-Wi 1.02,2013-05-11 21:09:00,
2013-05-11 14:14:00,104.9,41.9,30.06,East,82,3.0,4.9,12,0.00,,,-99.99,FreeWX-Wi 1.02,2013-05-11 21:14:00,
2013-05-11 14:19:00,105.8,40.5,30.03,ENE,72,3.0,8.3,11,0.00,,,-99.99,FreeWX-Wi 1.02,2013-05-11 21:19:00,
2013-05-11 14:24:00,104.5,41.7,30.03,ENE,75,3.0,6.3,12,0.00,,,-99.99,FreeWX-Wi 1.02,2013-05-11 21:24:00,
2013-05-11 14:29:00,105.4,42.4,30.03,East,79,3.0,12.3,12,0.00,,,-99.99,FreeWX-Wi 1.02,2013-05-11 21:29:00,
2013-05-11 14:34:00,105.4,42.4,30.03,ENE,78,4.0,15.0,12,0.00,,,-99.99,FreeWX-Wi 1.02,2013-05-11 21:34:00,
2013-05-11 14:39:00,104.9,41.9,30.03,East,85,5.0,11.4,12,0.00,,,-99.99,FreeWX-Wi 1.02,2013-05-11 21:39:00,
2013-05-11 14:44:00,105.4,42.4,30.03,ENE,78,6.0,15.0,12,0.00,,,-99.99,FreeWX-Wi 1.02,2013-05-11 21:44:00,
2013-05-11 14:49:00,104.4,41.5,30.03,ENE,74,7.0,13.6,12,0.00,,,-99.99,FreeWX-Wi 1.02,2013-05-11 21:49:00,
2013-05-11 14:54:00,105.3,42.3,30.03,ENE,64,7.0,8.1,12,0.00,,,-99.99,FreeWX-Wi 1.02,2013-05-11 21:54:00,
2013-05-11 14:59:00,104.5,41.7,30.03,ENE,59,6.0,7.6,12,0.00,,,-99.99,FreeWX-Wi 1.02,2013-05-11 21:59:00,
2013-05-11 15:04:00,105.1,42.1,30.03,ENE,63,5.0,8.7,12,0.00,,,-99.99,FreeWX-Wi 1.02,2013-05-11 22:04:00,
2013-05-11 15:09:00,105.1,42.1,30.03,ENE,62,4.0,6.3,12,0.00,,,-99.99,FreeWX-Wi 1.02,2013-05-11 22:09:00,
2013-05-11 15:14:00,105.8,40.5,30.03,ENE,66,4.0,8.7,11,0.00,,,-99.99,FreeWX-Wi 1.02,2013-05-11 22:14:00,
2013-05-11 15:19:00,105.8,40.5,30.03,ENE,70,4.0,5.8,11,0.00,,,-99.99,FreeWX-Wi 1.02,2013-05-11 22:19:00,
2013-05-11 15:24:00,106.0,40.6,30.03,East,80,4.0,10.1,11,0.00,,,-99.99,FreeWX-Wi 1.02,2013-05-11 22:24:00,
2013-05-11 15:29:00,105.3,42.3,30.03,East,92,4.0,7.6,12,0.00,,,-99.99,FreeWX-Wi 1.02,2013-05-11 22:29:00,
2013-05-11 15:34:00,103.5,40.8,30.00,East,93,3.0,4.5,12,0.00,,,-99.99,FreeWX-Wi 1.02,2013-05-11 22:34:00,
2013-05-11 15:39:00,104.0,41.4,30.00,East,97,3.0,3.6,12,0.00,,,-99.99,FreeWX-Wi 1.02,2013-05-11 22:39:00,
2013-05-11 15:44:00,104.2,41.4,30.00,ESE,108,3.0,6.3,12,0.00,,,-99.99,FreeWX-Wi 1.02,2013-05-11 22:44:00,
2013-05-11 15:49:00,104.5,41.7,30.00,ESE,114,3.0,12.3,12,0.00,,,-99.99,FreeWX-Wi 1.02,2013-05-11 22:49:00,
2013-05-11 15:54:00,103.1,40.6,30.00,East,93,3.0,12.8,12,0.00,,,-99.99,FreeWX-Wi 1.02,2013-05-11 22:54:00,
2013-05-11 15:59:00,102.6,40.3,30.00,ENE,75,4.0,13.2,12,0.00,,,-99.99,FreeWX-Wi 1.02,2013-05-11 22:59:00,
2013-05-11 16:04:00,101.5,39.4,30.00,ENE,58,5.0,10.5,12,0.00,,,-99.99,FreeWX-Wi 1.02,2013-05-11 23:04:00,
2013-05-11 16:09:00,102.6,40.3,30.00,NE,42,5.0,8.1,12,0.00,,,-99.99,FreeWX-Wi 1.02,2013-05-11 23:09:00,
2013-05-11 16:14:00,102.6,40.3,30.00,NNE,26,5.0,5.4,12,0.00,,,-99.99,FreeWX-Wi 1.02,2013-05-11 23:14:00,
2013-05-11 16:19:00,102.0,39.7,30.00,NNE,16,5.0,6.7,12,0.00,,,-99.99,FreeWX-Wi 1.02,2013-05-11 23:19:00,
2013-05-11 16:24:00,103.6,41.0,30.00,NNE,17,4.0,5.4,12,0.00,,,-99.99,FreeWX-Wi 1.02,2013-05-11 23:24:00,
2013-05-11 16:29:00,104.7,41.9,30.00,NNE,30,4.0,11.0,12,0.00,,,-99.99,FreeWX-Wi 1.02,2013-05-11 23:29:00,
2013-05-11 16:34:00,104.0,41.4,30.00,NE,44,4.0,12.8,12,0.00,,,-99.99,FreeWX-Wi 1.02,2013-05-11 23:34:00,
2013-05-11 16:39:00,104.4,41.5,30.00,ENE,78,4.0,8.7,12,0.00,,,-99.99,FreeWX-Wi 1.02,2013-05-11 23:39:00,
2013-05-11 16:44:00,104.9,41.9,30.00,East,95,5.0,10.5,12,0.00,,,-99.99,FreeWX-Wi 1.02,2013-05-11 23:44:00,
2013-05-11 16:49:00,104.9,41.9,30.00,East,93,6.0,10.1,12,0.00,,,-99.99,FreeWX-Wi 1.02,2013-05-11 23:49:00,
2013-05-11 16:54:00,104.9,41.9,30.00,East,89,7.0,12.8,12,0.00,,,-99.99,FreeWX-Wi 1.02,2013-05-11 23:54:00,
2013-05-11 16:59:00,104.4,41.5,30.00,East,92,7.0,8.7,12,0.00,,,-99.99,FreeWX-Wi 1.02,2013-05-11 23:59:00,
2013-05-11 17:04:00,104.0,41.4,30.00,East,90,6.0,10.5,12,0.00,,,-99.99,FreeWX-Wi 1.02,2013-05-12 00:04:00,
2013-05-11 17:09:00,103.8,41.2,30.00,East,85,6.0,8.1,12,0.00,,,-99.99,FreeWX-Wi 1.02,2013-05-12 00:09:00,
2013-05-11 17:14:00,102.4,40.1,30.00,ENE,78,6.0,8.7,12,0.00,,,-99.99,FreeWX-Wi 1.02,2013-05-12 00:14:00,
2013-05-11 17:19:00,102.9,40.5,30.00,East,82,6.0,9.6,12,0.00,,,-99.99,FreeWX-Wi 1.02,2013-05-12 00:19:00,
2013-05-11 17:24:00,103.5,40.8,30.00,East,86,5.0,10.1,12,0.00,,,-99.99,FreeWX-Wi 1.02,2013-05-12 00:24:00,
2013-05-11 17:29:00,103.5,40.8,30.00,East,92,5.0,8.3,12,0.00,,,-99.99,FreeWX-Wi 1.02,2013-05-12 00:29:00,
2013-05-11 17:34:00,103.5,40.8,30.00,East,93,4.0,7.6,12,0.00,,,-99.99,FreeWX-Wi 1.02,2013-05-12 00:34:00,
2013-05-11 17:39:00,103.3,40.8,30.00,East,100,5.0,8.7,12,0.00,,,-99.99,FreeWX-Wi 1.02,2013-05-12 00:39:00,
2013-05-11 17:44:00,103.3,40.8,30.00,ESE,103,5.0,9.2,12,0.00,,,-99.99,FreeWX-Wi 1.02,2013-05-12 00:44:00,
2013-05-11 17:49:00,102.4,40.1,30.00,East,100,5.0,7.6,12,0.00,,,-99.99,FreeWX-Wi 1.02,2013-05-12 00:49:00,
2013-05-11 17:54:00,101.7,39.6,30.00,East,97,5.0,8.7,12,0.00,,,-99.99,FreeWX-Wi 1.02,2013-05-12 00:54:00,
2013-05-11 17:59:00,100.9,39.0,30.00,East,92,5.0,9.2,12,0.00,,,-99.99,FreeWX-Wi 1.02,2013-05-12 00:59:00,
2013-05-11 18:04:00,100.0,40.3,29.97,East,89,5.0,5.8,13,0.00,,,-99.99,FreeWX-Wi 1.02,2013-05-12 01:04:00,
2013-05-11 18:09:00,99.3,39.7,29.97,East,88,5.0,6.3,13,0.00,,,-99.99,FreeWX-Wi 1.02,2013-05-12 01:09:00,
2013-05-11 18:14:00,98.8,39.4,29.97,East,83,4.0,5.4,13,0.00,,,-99.99,FreeWX-Wi 1.02,2013-05-12 01:14:00,
2013-05-11 18:19:00,98.2,38.8,29.97,East,79,4.0,7.6,13,0.00,,,-99.99,FreeWX-Wi 1.02,2013-05-12 01:19:00,
2013-05-11 18:24:00,97.7,38.5,29.97,ENE,77,4.0,5.8,13,0.00,,,-99.99,FreeWX-Wi 1.02,2013-05-12 01:24:00,
2013-05-11 18:29:00,97.2,38.1,29.97,ENE,78,4.0,6.3,13,0.00,,,-99.99,FreeWX-Wi 1.02,2013-05-12 01:29:00,
2013-05-11 18:34:00,96.6,39.6,29.97,ENE,78,4.0,5.8,14,0.00,,,-99.99,FreeWX-Wi 1.02,2013-05-12 01:34:00,
2013-05-11 18:39:00,95.7,38.8,29.97,East,83,3.0,3.0,14,0.00,,,-99.99,FreeWX-Wi 1.02,2013-05-12 01:39:00,
2013-05-11 18:44:00,95.2,38.5,29.97,East,89,3.0,4.0,14,0.00,,,-99.99,FreeWX-Wi 1.02,2013-05-12 01:44:00,
2013-05-11 18:49:00,94.5,37.9,30.00,East,91,2.0,4.9,14,0.00,,,-99.99,FreeWX-Wi 1.02,2013-05-12 01:49:00,
2013-05-11 18:54:00,94.8,38.1,30.00,East,84,2.0,6.7,14,0.00,,,-99.99,FreeWX-Wi 1.02,2013-05-12 01:54:00,
2013-05-11 18:59:00,94.5,37.9,30.00,ENE,77,2.0,6.3,14,0.00,,,-99.99,FreeWX-Wi 1.02,2013-05-12 01:59:00,
2013-05-11 19:04:00,94.3,31.6,30.00,ENE,60,3.0,8.7,11,0.00,,,-99.99,FreeWX-Wi 1.02,2013-05-12 02:04:00,
2013-05-11 19:09:00,94.1,37.6,30.00,NE,46,4.0,10.1,14,0.00,,,-99.99,FreeWX-Wi 1.02,2013-05-12 02:09:00,
2013-05-11 19:14:00,93.9,37.4,30.00,NE,35,5.0,7.6,14,0.00,,,-99.99,FreeWX-Wi 1.02,2013-05-12 02:14:00,
2013-05-11 19:19:00,93.6,31.1,30.00,NNE,30,5.0,5.8,11,0.00,,,-99.99,FreeWX-Wi 1.02,2013-05-12 02:19:00,
2013-05-11 19:24:00,92.8,32.7,30.00,NNE,31,4.0,4.9,12,0.00,,,-99.99,FreeWX-Wi 1.02,2013-05-12 02:24:00,
2013-05-11 19:29:00,93.2,30.9,30.00,NNE,27,4.0,5.8,11,0.00,,,-99.99,FreeWX-Wi 1.02,2013-05-12 02:29:00,
2013-05-11 19:34:00,92.7,32.5,30.00,NNE,26,4.0,5.8,12,0.00,,,-99.99,FreeWX-Wi 1.02,2013-05-12 02:34:00,
2013-05-11 19:39:00,92.1,32.2,30.00,NNE,27,3.0,5.8,12,0.00,,,-99.99,FreeWX-Wi 1.02,2013-05-12 02:39:00,
2013-05-11 19:44:00,91.2,31.5,30.00,NNE,27,2.0,3.1,12,0.00,,,-99.99,FreeWX-Wi 1.02,2013-05-12 02:44:00,
2013-05-11 19:49:00,90.7,31.1,30.00,NNE,28,2.0,4.0,12,0.00,,,-99.99,FreeWX-Wi 1.02,2013-05-12 02:49:00,
2013-05-11 19:54:00,89.4,32.0,30.00,NNE,30,2.0,0.0,13,0.00,,,-99.99,FreeWX-Wi 1.02,2013-05-12 02:54:00,
2013-05-11 19:59:00,89.6,30.2,30.00,NE,38,1.0,3.1,12,0.00,,,-99.99,FreeWX-Wi 1.02,2013-05-12 02:59:00,
2013-05-11 20:04:00,88.2,31.1,30.00,NE,41,1.0,0.0,13,0.00,,,-99.99,FreeWX-Wi 1.02,2013-05-12 03:04:00,
2013-05-11 20:09:00,86.9,30.2,30.00,North,-999,0.0,2.7,13,0.00,,,-99.99,FreeWX-Wi 1.02,2013-05-12 03:09:00,
2013-05-11 20:14:00,86.9,30.2,30.00,North,-999,0.0,0.0,13,0.00,,,-99.99,FreeWX-Wi 1.02,2013-05-12 03:14:00,
2013-05-11 20:19:00,86.9,30.2,30.00,North,-999,0.0,0.0,13,0.00,,,-99.99,FreeWX-Wi 1.02,2013-05-12 03:19:00,
2013-05-11 20:24:00,87.1,30.2,30.00,North,-999,0.0,0.0,13,0.00,,,-99.99,FreeWX-Wi 1.02,2013-05-12 03:24:00,
2013-05-11 20:29:00,86.4,29.7,30.00,North,-999,0.0,0.0,13,0.00,,,-99.99,FreeWX-Wi 1.02,2013-05-12 03:29:00,
2013-05-11 20:34:00,85.3,28.9,30.00,North,-999,0.0,2.2,13,0.00,,,-99.99,FreeWX-Wi 1.02,2013-05-12 03:34:00,
2013-05-11 20:39:00,84.9,28.6,30.00,North,-999,0.0,0.0,13,0.00,,,-99.99,FreeWX-Wi 1.02,2013-05-12 03:39:00,
2013-05-11 20:44:00,84.2,28.0,30.00,North,-999,0.0,5.8,13,0.00,,,-99.99,FreeWX-Wi 1.02,2013-05-12 03:44:00,
2013-05-11 20:49:00,84.6,28.2,30.03,NE,56,1.0,6.3,13,0.00,,,-99.99,FreeWX-Wi 1.02,2013-05-12 03:49:00,
2013-05-11 20:54:00,85.6,29.1,30.03,ENE,68,2.0,6.3,13,0.00,,,-99.99,FreeWX-Wi 1.02,2013-05-12 03:54:00,
2013-05-11 20:59:00,85.8,29.3,30.03,East,81,2.0,4.9,13,0.00,,,-99.99,FreeWX-Wi 1.02,2013-05-12 03:59:00,
2013-05-11 21:04:00,84.6,28.2,30.03,East,98,2.0,3.1,13,0.00,,,-99.99,FreeWX-Wi 1.02,2013-05-12 04:04:00,
2013-05-11 21:09:00,84.2,28.0,30.03,SE,135,2.0,2.2,13,0.00,,,-99.99,FreeWX-Wi 1.02,2013-05-12 04:09:00,
2013-05-11 21:14:00,84.2,28.0,30.03,South,186,1.0,2.2,13,0.00,,,-99.99,FreeWX-Wi 1.02,2013-05-12 04:14:00,
2013-05-11 21:19:00,84.2,28.0,30.03,SW,229,1.0,6.3,13,0.00,,,-99.99,FreeWX-Wi 1.02,2013-05-12 04:19:00,
2013-05-11 21:24:00,84.0,29.7,30.03,WSW,253,1.0,5.8,14,0.00,,,-99.99,FreeWX-Wi 1.02,2013-05-12 04:24:00,
2013-05-11 21:29:00,83.8,29.5,30.03,West,264,1.0,6.3,14,0.00,,,-99.99,FreeWX-Wi 1.02,2013-05-12 04:29:00,
2013-05-11 21:34:00,83.3,29.1,30.03,West,268,2.0,7.6,14,0.00,,,-99.99,FreeWX-Wi 1.02,2013-05-12 04:34:00,
2013-05-11 21:39:00,82.9,28.8,30.03,West,271,2.0,4.0,14,0.00,,,-99.99,FreeWX-Wi 1.02,2013-05-12 04:39:00,
2013-05-11 21:44:00,83.3,29.1,30.03,West,275,2.0,4.0,14,0.00,,,-99.99,FreeWX-Wi 1.02,2013-05-12 04:44:00,
2013-05-11 21:49:00,82.8,28.8,30.06,West,274,2.0,3.6,14,0.00,,,-99.99,FreeWX-Wi 1.02,2013-05-12 04:49:00,
2013-05-11 21:54:00,82.2,28.2,30.06,West,273,2.0,2.7,14,0.00,,,-99.99,FreeWX-Wi 1.02,2013-05-12 04:54:00,
2013-05-11 21:59:00,82.0,28.0,30.06,West,273,1.0,3.1,14,0.00,,,-99.99,FreeWX-Wi 1.02,2013-05-12 04:59:00,
2013-05-11 22:04:00,82.2,28.2,30.06,West,276,1.0,3.1,14,0.00,,,-99.99,FreeWX-Wi 1.02,2013-05-12 05:04:00,
2013-05-11 22:09:00,82.2,28.2,30.06,West,280,1.0,3.6,14,0.00,,,-99.99,FreeWX-Wi 1.02,2013-05-12 05:09:00,
2013-05-11 22:14:00,82.4,28.4,30.06,North,-999,0.0,0.0,14,0.00,,,-99.99,FreeWX-Wi 1.02,2013-05-12 05:14:00,
2013-05-11 22:19:00,81.5,27.7,30.06,North,-999,0.0,0.0,14,0.00,,,-99.99,FreeWX-Wi 1.02,2013-05-12 05:19:00,
2013-05-11 22:24:00,81.0,27.3,30.06,North,-999,0.0,0.0,14,0.00,,,-99.99,FreeWX-Wi 1.02,2013-05-12 05:24:00,
2013-05-11 22:29:00,80.8,27.1,30.06,North,-999,0.0,0.0,14,0.00,,,-99.99,FreeWX-Wi 1.02,2013-05-12 05:29:00,
2013-05-11 22:34:00,80.6,27.0,30.06,North,-999,0.0,3.1,14,0.00,,,-99.99,FreeWX-Wi 1.02,2013-05-12 05:34:00,
2013-05-11 22:39:00,80.4,28.6,30.06,North,-999,0.0,3.1,15,0.00,,,-99.99,FreeWX-Wi 1.02,2013-05-12 05:39:00,
2013-05-11 22:44:00,79.7,28.0,30.06,North,-999,0.0,0.0,15,0.00,,,-99.99,FreeWX-Wi 1.02,2013-05-12 05:44:00,
2013-05-11 22:49:00,79.3,27.7,30.06,North,-999,0.0,2.7,15,0.00,,,-99.99,FreeWX-Wi 1.02,2013-05-12 05:49:00,
2013-05-11 22:54:00,79.2,27.5,30.06,North,-999,0.0,3.6,15,0.00,,,-99.99,FreeWX-Wi 1.02,2013-05-12 05:54:00,
2013-05-11 22:59:00,79.5,27.9,30.06,North,-999,0.0,5.4,15,0.00,,,-99.99,FreeWX-Wi 1.02,2013-05-12 05:59:00,
2013-05-11 23:04:00,79.3,27.7,30.06,WNW,292,1.0,4.0,15,0.00,,,-99.99,FreeWX-Wi 1.02,2013-05-12 06:04:00,
2013-05-11 23:09:00,79.5,27.9,30.06,WNW,297,1.0,4.0,15,0.00,,,-99.99,FreeWX-Wi 1.02,2013-05-12 06:09:00,
2013-05-11 23:14:00,79.7,28.0,30.06,WNW,301,1.0,3.6,15,0.00,,,-99.99,FreeWX-Wi 1.02,2013-05-12 06:14:00,
2013-05-11 23:19:00,79.2,27.5,30.06,NW,305,1.0,2.7,15,0.00,,,-99.99,FreeWX-Wi 1.02,2013-05-12 06:19:00,
2013-05-11 23:24:00,78.6,27.1,30.06,NW,309,1.0,2.2,15,0.00,,,-99.99,FreeWX-Wi 1.02,2013-05-12 06:24:00,
2013-05-11 23:29:00,78.8,27.3,30.06,NW,313,1.0,5.4,15,0.00,,,-99.99,FreeWX-Wi 1.02,2013-05-12 06:29:00,
2013-05-11 23:34:00,78.1,26.6,30.06,NW,315,1.0,4.0,15,0.00,,,-99.99,FreeWX-Wi 1.02,2013-05-12 06:34:00,
2013-05-11 23:39:00,78.4,27.0,30.06,NW,320,1.0,5.4,15,0.00,,,-99.99,FreeWX-Wi 1.02,2013-05-12 06:39:00,
2013-05-11 23:44:00,78.3,26.8,30.06,NW,326,1.0,3.6,15,0.00,,,-99.99,FreeWX-Wi 1.02,2013-05-12 06:44:00,
2013-05-11 23:49:00,77.4,26.1,30.06,NNW,334,1.0,0.0,15,0.00,,,-99.99,FreeWX-Wi 1.02,2013-05-12 06:49:00,
2013-05-11 23:54:00,77.4,26.1,30.06,NNW,340,1.0,4.0,15,0.00,,,-99.99,FreeWX-Wi 1.02,2013-05-12 06:54:00,
2013-05-11 23:59:00,77.9,26.6,30.06,NNW,346,1.0,4.0,15,0.00,,,-99.99,FreeWX-Wi 1.02,2013-05-12 06:59:00,